TimeCDT,TemperatureF,Dew PointF,Humidity,Sea Level PressureIn,VisibilityMPH,Wind Direction,Wind SpeedMPH,Gust SpeedMPH,PrecipitationIn,Events,Conditions,WindDirDegrees,DateUTC
12:15 AM,48.2,35.6,62,29.99,10.0,South,21.9,26.5,N/A,,Overcast,170,2012-10-13 05:15:00
12:55 AM,48.2,35.6,62,29.97,10.0,SSE,15.0,20.7,N/A,,Overcast,160,2012-10-13 05:55:00
1:15 AM,48.2,33.8,58,29.97,10.0,SSE,16.1,-,N/A,,Overcast,160,2012-10-13 06:15:00
1:35 AM,48.2,33.8,58,29.96,10.0,South,16.1,-,N/A,,Overcast,170,2012-10-13 06:35:00
1:55 AM,48.2,33.8,58,29.95,10.0,SSE,15.0,-,N/A,,Overcast,160,2012-10-13 06:55:00
2:15 AM,48.2,35.6,62,29.93,10.0,South,15.0,19.6,N/A,,Overcast,170,2012-10-13 07:15:00
2:35 AM,48.2,37.4,66,29.91,10.0,South,17.3,20.7,N/A,,Overcast,170,2012-10-13 07:35:00
2:55 AM,48.2,39.2,71,29.90,10.0,South,17.3,-,N/A,,Overcast,170,2012-10-13 07:55:00
3:15 AM,48.2,39.2,71,29.90,10.0,South,16.1,-,N/A,,Overcast,170,2012-10-13 08:15:00
3:35 AM,48.2,42.8,82,29.90,5.0,South,15.0,-,N/A,,Overcast,180,2012-10-13 08:35:00
3:55 AM,48.2,42.8,82,29.88,8.0,South,13.8,-,N/A,,Overcast,170,2012-10-13 08:55:00
4:15 AM,46.4,42.8,87,29.88,10.0,SSE,15.0,18.4,N/A,,Overcast,160,2012-10-13 09:15:00
4:35 AM,46.4,42.8,87,29.87,10.0,South,12.7,-,N/A,,Overcast,170,2012-10-13 09:35:00
4:55 AM,46.4,42.8,87,29.85,10.0,South,11.5,-,N/A,,Overcast,170,2012-10-13 09:55:00
5:15 AM,46.4,42.8,87,29.84,10.0,SSE,12.7,-,N/A,,Overcast,160,2012-10-13 10:15:00
5:55 AM,46.4,42.8,87,29.83,8.0,South,15.0,-,N/A,,Overcast,170,2012-10-13 10:55:00
6:15 AM,46.4,44.6,93,29.83,5.0,South,12.7,-,N/A,,Overcast,170,2012-10-13 11:15:00
6:35 AM,48.2,44.6,87,29.81,7.0,South,16.1,-,N/A,,Overcast,170,2012-10-13 11:35:00
6:55 AM,48.2,44.6,87,29.81,9.0,South,13.8,-,N/A,,Overcast,180,2012-10-13 11:55:00
7:15 AM,48.2,44.6,87,29.80,9.0,South,15.0,18.4,N/A,,Overcast,170,2012-10-13 12:15:00
7:35 AM,48.2,44.6,87,29.78,10.0,South,13.8,-,N/A,,Overcast,170,2012-10-13 12:35:00
7:55 AM,48.2,44.6,87,29.79,8.0,South,8.1,-,N/A,,Overcast,180,2012-10-13 12:55:00
8:15 AM,48.2,44.6,87,29.77,8.0,SSE,9.2,-,N/A,,Overcast,150,2012-10-13 13:15:00
8:55 AM,50.0,46.4,87,29.76,8.0,SSE,11.5,-,N/A,,Overcast,160,2012-10-13 13:55:00
9:35 AM,51.8,46.4,82,29.76,10.0,South,11.5,-,N/A,,Overcast,170,2012-10-13 14:35:00
9:55 AM,53.6,48.2,82,29.76,10.0,South,13.8,-,N/A,,Overcast,170,2012-10-13 14:55:00
10:15 AM,53.6,48.2,82,29.77,10.0,SSE,10.4,-,N/A,,Overcast,160,2012-10-13 15:15:00
10:35 AM,53.6,48.2,82,29.76,10.0,SSE,10.4,-,N/A,,Overcast,160,2012-10-13 15:35:00
10:55 AM,55.4,48.2,77,29.74,10.0,SSE,10.4,-,N/A,,Overcast,160,2012-10-13 15:55:00
11:15 AM,55.4,50.0,82,29.73,10.0,SSE,13.8,-,N/A,,Overcast,150,2012-10-13 16:15:00
11:35 AM,55.4,51.8,88,29.71,10.0,SSE,15.0,-,N/A,,Overcast,160,2012-10-13 16:35:00
11:55 AM,57.2,51.8,82,29.71,10.0,South,13.8,-,N/A,,Overcast,180,2012-10-13 16:55:00
12:35 PM,62.6,55.4,77,29.70,10.0,South,12.7,-,N/A,,Overcast,190,2012-10-13 17:35:00
1:15 PM,64.4,55.4,73,29.69,10.0,SW,11.5,-,N/A,,Overcast,230,2012-10-13 18:15:00
1:35 PM,66.2,55.4,68,29.67,10.0,SSW,13.8,-,N/A,,Overcast,210,2012-10-13 18:35:00
1:55 PM,68.0,55.4,64,29.65,10.0,SSW,10.4,-,N/A,,Overcast,210,2012-10-13 18:55:00
2:15 PM,68.0,55.4,64,29.65,10.0,WSW,16.1,19.6,N/A,,Overcast,240,2012-10-13 19:15:00
2:35 PM,69.8,55.4,60,29.66,10.0,WSW,13.8,-,N/A,,Overcast,240,2012-10-13 19:35:00
2:55 PM,69.8,55.4,60,29.66,10.0,SW,13.8,-,N/A,,Overcast,230,2012-10-13 19:55:00
3:15 PM,69.8,55.4,60,29.65,10.0,SW,12.7,-,N/A,,Overcast,220,2012-10-13 20:15:00
3:35 PM,69.8,55.4,60,29.65,10.0,WSW,8.1,-,N/A,,Overcast,250,2012-10-13 20:35:00
3:55 PM,69.8,55.4,60,29.65,10.0,NW,6.9,-,N/A,,Overcast,320,2012-10-13 20:55:00
4:15 PM,69.8,55.4,60,29.65,10.0,WNW,13.8,-,N/A,,Overcast,300,2012-10-13 21:15:00
4:35 PM,68.0,55.4,64,29.66,10.0,NNW,11.5,-,N/A,,Mostly Cloudy,340,2012-10-13 21:35:00
4:55 PM,68.0,53.6,60,29.66,10.0,NW,9.2,-,N/A,,Mostly Cloudy,320,2012-10-13 21:55:00
5:15 PM,66.2,53.6,64,29.66,10.0,NNW,10.4,-,N/A,,Overcast,330,2012-10-13 22:15:00
5:35 PM,66.2,53.6,64,29.67,10.0,NW,8.1,-,N/A,,Overcast,310,2012-10-13 22:35:00
5:55 PM,66.2,53.6,64,29.67,10.0,NW,8.1,-,N/A,,Overcast,320,2012-10-13 22:55:00
6:15 PM,64.4,51.8,64,29.67,10.0,North,4.6,-,N/A,,Overcast,350,2012-10-13 23:15:00
6:35 PM,62.6,51.8,68,29.68,10.0,North,5.8,-,N/A,,Mostly Cloudy,350,2012-10-13 23:35:00
7:35 PM,60.8,48.2,63,29.69,10.0,North,4.6,-,N/A,,Overcast,10,2012-10-14 00:35:00
7:55 PM,60.8,48.2,63,29.70,10.0,North,4.6,-,N/A,,Overcast,350,2012-10-14 00:55:00
8:35 PM,57.2,50.0,77,29.72,10.0,North,5.8,-,N/A,,Scattered Clouds,10,2012-10-14 01:35:00
8:55 PM,57.2,51.8,82,29.70,10.0,North,8.1,-,N/A,,Scattered Clouds,10,2012-10-14 01:55:00
9:15 PM,55.4,51.8,88,29.70,10.0,NNE,9.2,-,N/A,,Scattered Clouds,20,2012-10-14 02:15:00
9:35 PM,55.4,50.0,82,29.72,9.0,NE,6.9,-,N/A,,Clear,40,2012-10-14 02:35:00
9:55 PM,53.6,50.0,88,29.74,8.0,NE,6.9,-,N/A,,Clear,50,2012-10-14 02:55:00
10:15 PM,53.6,51.8,94,29.70,5.0,NNE,9.2,-,N/A,,Scattered Clouds,20,2012-10-14 03:15:00
11:15 PM,53.6,50.0,88,29.72,0.5,North,9.2,-,N/A,,Overcast,360,2012-10-14 04:15:00
11:35 PM,53.6,50.0,88,29.71,0.5,North,9.2,-,N/A,,Overcast,10,2012-10-14 04:35:00